When you browse on this site, cookies collect data to enhance your experience and personalize the content and advertising you see.
Visit our Privacy Policy to learn more. By continuing to use the site, you agree to this use of cookies and data.
  • In Hungary
  • List of Countries
  • For 7 days
  • Water Temperature
  • Satellite Maps
  • Weather Map
  • News
  • Weather Widgets
  • user-avatar
    Login

    Hourly Weather Bielawa

    Today, 19 November, Monday

    Time Temperature Precipitation Wind Pressure Humidity
    00:00 -1°C° 0.1 mm 1 mps 736 mmHg 71%
    01:00 0°C° 0 mm 1 mps 736 mmHg 84%
    02:00 0°C° 0.1 mm 1 mps 736 mmHg 85%
    03:00 -2°C° 0.1 mm 2 mps 736 mmHg 87%
    04:00 -2°C° 0.1 mm 2 mps 735 mmHg 89%
    05:00 -2°C° 0.1 mm 3 mps 735 mmHg 89%
    06:00 -1°C° 0.1 mm 3 mps 735 mmHg 89%
    07:00 -1°C° 0 mm 3 mps 735 mmHg 89%
    08:00 -2°C° 0.1 mm 4 mps 735 mmHg 86%
    09:00 -1°C° 0.1 mm 4 mps 735 mmHg 83%
    10:00 -1°C° 0.1 mm 5 mps 736 mmHg 80%
    11:00 -1°C° 0 mm 5 mps 735 mmHg 76%
    12:00 0°C° 0 mm 5 mps 735 mmHg 72%
    13:00 0°C° 0 mm 5 mps 735 mmHg 68%
    14:00 -1°C° 0 mm 5 mps 735 mmHg 70%
    15:00 -1°C° 0 mm 5 mps 735 mmHg 73%
    16:00 -2°C° 0 mm 4 mps 735 mmHg 75%
    17:00 -2°C° 0 mm 5 mps 736 mmHg 75%
    18:00 -2°C° 0 mm 5 mps 736 mmHg 75%
    19:00 -4°C° 0 mm 5 mps 736 mmHg 75%
    20:00 -4°C° 0 mm 5 mps 736 mmHg 76%
    21:00 -4°C° 0 mm 5 mps 736 mmHg 77%
    22:00 -4°C° 0 mm 4 mps 736 mmHg 79%
    23:00 -4°C° 0 mm 4 mps 736 mmHg 80%

    Tomorrow, 20 November, Tuesday

    Time Temperature Precipitation Wind Pressure Humidity
    00:00 -4°C° 0 mm 4 mps 735 mmHg 81%
    01:00 -4°C° 0 mm 4 mps 735 mmHg 82%
    02:00 -4°C° 0 mm 4 mps 735 mmHg 82%
    03:00 -3°C° 0 mm 4 mps 735 mmHg 82%
    04:00 -4°C° 0 mm 5 mps 734 mmHg 82%
    05:00 -3°C° 0 mm 4 mps 734 mmHg 82%
    06:00 -3°C° 0 mm 4 mps 734 mmHg 83%
    07:00 -3°C° 0 mm 4 mps 734 mmHg 84%
    08:00 -2°C° 0 mm 4 mps 734 mmHg 82%
    09:00 -2°C° 0 mm 5 mps 734 mmHg 79%
    10:00 -1°C° 0 mm 5 mps 733 mmHg 77%
    11:00 -1°C° 0.1 mm 5 mps 733 mmHg 76%
    12:00 -1°C° 0.1 mm 5 mps 733 mmHg 76%
    13:00 0°C° 0.1 mm 5 mps 732 mmHg 75%
    14:00 0°C° 0.3 mm 5 mps 732 mmHg 77%
    15:00 -1°C° 0.3 mm 4 mps 732 mmHg 79%
    16:00 -1°C° 0.3 mm 4 mps 731 mmHg 81%
    17:00 -1°C° 0.5 mm 4 mps 732 mmHg 84%
    18:00 -1°C° 0.5 mm 4 mps 732 mmHg 86%
    19:00 0°C° 0.5 mm 3 mps 732 mmHg 88%
    20:00 0°C° 0.1 mm 3 mps 732 mmHg 89%
    21:00 0°C° 0.1 mm 3 mps 732 mmHg 90%
    22:00 0°C° 0.1 mm 3 mps 733 mmHg 91%
    23:00 +1°C° 0 mm 2 mps 733 mmHg 92%

    Day after tomorrow, 21 November, Wednesday

    Time Temperature Precipitation Wind Pressure Humidity
    00:00 +1°C° 0 mm 2 mps 733 mmHg 93%
    01:00 +1°C° 0 mm 2 mps 733 mmHg 93%
    02:00 +1°C° 0 mm 2 mps 733 mmHg 94%
    03:00 +1°C° 0 mm 2 mps 733 mmHg 94%
    04:00 +1°C° 0 mm 2 mps 734 mmHg 94%
    05:00 +1°C° 0 mm 2 mps 734 mmHg 94%
    06:00 +1°C° 0 mm 2 mps 734 mmHg 94%
    07:00 +1°C° 0 mm 2 mps 734 mmHg 94%
    08:00 +1°C° 0 mm 2 mps 735 mmHg 93%
    09:00 +1°C° 0 mm 2 mps 735 mmHg 92%
    10:00 +2°C° 0 mm 2 mps 736 mmHg 91%
    11:00 +1°C° 0 mm 3 mps 736 mmHg 90%
    12:00 +1°C° 0 mm 3 mps 736 mmHg 89%
    13:00 +1°C° 0 mm 3 mps 736 mmHg 88%
    14:00 +1°C° 0 mm 3 mps 736 mmHg 89%
    15:00 +1°C° 0 mm 3 mps 736 mmHg 90%
    16:00 +1°C° 0 mm 3 mps 736 mmHg 91%
    17:00 0°C° 0 mm 3 mps 737 mmHg 91%
    18:00 0°C° 0 mm 3 mps 737 mmHg 90%
    19:00 0°C° 0 mm 3 mps 737 mmHg 90%
    20:00 0°C° 0 mm 3 mps 737 mmHg 90%
    21:00 0°C° 0 mm 3 mps 738 mmHg 89%
    22:00 0°C° 0 mm 3 mps 738 mmHg 89%
    23:00 -1°C° 0 mm 3 mps 738 mmHg 89%

    22 November, Thursday

    Time Temperature Precipitation Wind Pressure Humidity
    00:00 -1°C° 0 mm 3 mps 738 mmHg 89%
    01:00 -1°C° 0 mm 3 mps 738 mmHg 89%
    02:00 -1°C° 0 mm 3 mps 738 mmHg 89%
    03:00 -2°C° 0 mm 3 mps 738 mmHg 90%
    04:00 -2°C° 0 mm 3 mps 738 mmHg 90%
    05:00 -2°C° 0 mm 3 mps 738 mmHg 90%
    06:00 -2°C° 0 mm 3 mps 738 mmHg 90%
    07:00 -2°C° 0 mm 3 mps 738 mmHg 90%
    08:00 -1°C° 0 mm 2 mps 738 mmHg 88%
    09:00 -1°C° 0 mm 2 mps 738 mmHg 87%
    10:00 +1°C° 0 mm 2 mps 739 mmHg 85%
    11:00 +1°C° 0 mm 2 mps 739 mmHg 85%
    12:00 +2°C° 0 mm 2 mps 739 mmHg 84%
    13:00 +3°C° 0 mm 2 mps 739 mmHg 83%
    14:00 +2°C° 0 mm 2 mps 739 mmHg 86%
    15:00 +2°C° 0 mm 2 mps 739 mmHg 89%
    16:00 +1°C° 0 mm 2 mps 739 mmHg 91%
    17:00 +1°C° 0 mm 2 mps 739 mmHg 91%
    18:00 +1°C° 0 mm 2 mps 739 mmHg 92%
    19:00 +1°C° 0 mm 1 mps 739 mmHg 92%
    20:00 +1°C° 0 mm 1 mps 740 mmHg 92%
    21:00 +1°C° 0 mm 1 mps 740 mmHg 92%
    22:00 +1°C° 0 mm 1 mps 740 mmHg 92%
    23:00 +1°C° 0 mm 1 mps 740 mmHg 91%

    23 November, Friday

    Time Temperature Precipitation Wind Pressure Humidity
    00:00 +1°C° 0 mm 1 mps 740 mmHg 91%
    01:00 +1°C° 0 mm 1 mps 740 mmHg 91%
    02:00 +1°C° 0 mm 1 mps 740 mmHg 91%
    03:00 +2°C° 0 mm 1 mps 740 mmHg 91%
    04:00 +2°C° 0 mm 1 mps 740 mmHg 91%
    05:00 +2°C° 0 mm 1 mps 740 mmHg 91%
    06:00 +2°C° 0 mm 1 mps 740 mmHg 91%
    07:00 +2°C° 0 mm 1 mps 741 mmHg 91%
    08:00 +2°C° 0 mm 2 mps 741 mmHg 89%
    09:00 +3°C° 0 mm 2 mps 741 mmHg 87%
    10:00 +4°C° 0 mm 2 mps 741 mmHg 85%
    11:00 +5°C° 0 mm 2 mps 741 mmHg 84%
    12:00 +6°C° 0 mm 2 mps 741 mmHg 83%
    13:00 +6°C° 0 mm 2 mps 741 mmHg 81%
    14:00 +6°C° 0 mm 2 mps 741 mmHg 84%
    15:00 +5°C° 0 mm 2 mps 740 mmHg 88%
    16:00 +4°C° 0 mm 2 mps 740 mmHg 91%
    17:00 +3°C° 0 mm 2 mps 740 mmHg 91%
    18:00 +3°C° 0 mm 2 mps 740 mmHg 91%
    19:00 +3°C° 0 mm 2 mps 740 mmHg 92%
    20:00 +3°C° 0 mm 2 mps 740 mmHg 92%
    21:00 +2°C° 0 mm 3 mps 740 mmHg 92%
    22:00 +2°C° 0 mm 3 mps 740 mmHg 92%
    23:00 +2°C° 0 mm 3 mps 739 mmHg 91%

    24 November, Saturday

    Time Temperature Precipitation Wind Pressure Humidity
    00:00 +2°C° 0 mm 3 mps 739 mmHg 91%
    01:00 +2°C° 0 mm 3 mps 739 mmHg 91%
    02:00 +2°C° 0 mm 3 mps 738 mmHg 91%
    03:00 +2°C° 0 mm 3 mps 738 mmHg 91%
    04:00 +3°C° 0 mm 2 mps 738 mmHg 91%
    05:00 +2°C° 0 mm 2 mps 737 mmHg 91%
    06:00 +2°C° 0 mm 2 mps 737 mmHg 91%
    07:00 +2°C° 0 mm 2 mps 737 mmHg 91%
    08:00 +3°C° 0 mm 2 mps 737 mmHg 88%
    09:00 +4°C° 0 mm 2 mps 737 mmHg 86%
    10:00 +4°C° 0 mm 3 mps 737 mmHg 83%
    11:00 +4°C° 0 mm 3 mps 736 mmHg 81%
    12:00 +6°C° 0 mm 2 mps 736 mmHg 79%
    13:00 +7°C° 0 mm 2 mps 736 mmHg 76%
    14:00 +6°C° 0 mm 2 mps 736 mmHg 80%
    15:00 +5°C° 0 mm 2 mps 736 mmHg 83%
    16:00 +5°C° 0 mm 2 mps 735 mmHg 86%
    17:00 +4°C° 0 mm 2 mps 735 mmHg 87%
    18:00 +4°C° 0 mm 2 mps 735 mmHg 88%
    19:00 +4°C° 0 mm 2 mps 735 mmHg 89%
    20:00 +3°C° 0 mm 2 mps 735 mmHg 89%
    21:00 +3°C° 0 mm 2 mps 735 mmHg 90%
    22:00 +3°C° 0 mm 2 mps 735 mmHg 91%
    23:00 +3°C° 0 mm 2 mps 735 mmHg 91%
    Show more